QPF
0.00 0.00 0.00 0.01 0.02 0.03 0.04 0.03 0.01 0.01 0.02 0.04 0.02 0.00 0.00 0.01 0.02 0.06 0.09 0.06 0.04 0.02 0.01 0.00 0.00 0.00 0.00 0.00 0.00 0.00 0.01 0.01 0.01 0.01 0.01 0.02 0.01 0.01 0.01 0.01 0.01 0.02 0.04 0.05 0.06 0.06 0.06 0.05 0.05
0.00 0.00 0.00 0.01 0.02 0.04 0.04 0.04 0.01 0.00 0.01 0.04 0.02 0.00 0.00 0.00 0.02 0.05 0.07 0.07 0.04 0.02 0.00 0.00 0.00 0.00 0.00 0.00 0.00 0.01 0.01 0.01 0.01 0.01 0.02 0.02 0.02 0.01 0.01 0.01 0.01 0.03 0.04 0.04 0.07 0.07 0.07 0.06 0.05
0.01 0.01 0.00 0.01 0.02 0.03 0.02 0.02 0.01 0.00 0.02 0.02 0.01 0.01 0.00 0.01 0.02 0.05 0.09 0.09 0.03 0.01 0.00 0.00 0.00 0.00 0.00 0.00 0.01 0.01 0.01 0.02 0.02 0.02 0.02 0.02 0.02 0.02 0.01 0.01 0.01 0.03 0.03 0.03 0.04 0.05 0.05 0.05 0.05
0.01 0.00 0.01 0.02 0.03 0.02 0.01 0.01 0.00 0.00 0.01 0.01 0.01 0.01 0.01 0.02 0.02 0.04 0.07 0.07 0.02 0.01 0.00 0.00 0.00 0.00 0.00 0.01 0.01 0.01 0.01 0.02 0.02 0.03 0.02 0.02 0.02 0.02 0.01 0.01 0.01 0.03 0.02 0.01 0.03 0.04 0.06 0.07 0.07
0.00 0.00 0.01 0.04 0.04 0.01 0.01 0.01 0.01 0.01 0.01 0.02 0.01 0.01 0.02 0.02 0.02 0.07 0.13 0.05 0.01 0.00 0.00 0.00 0.00 0.00 0.00 0.01 0.01 0.01 0.01 0.01 0.03 0.04 0.03 0.02 0.02 0.02 0.02 0.02 0.02 0.02 0.02 0.01 0.02 0.03 0.04 0.07 0.08
0.01 0.00 0.01 0.05 0.07 0.02 0.01 0.01 0.01 0.01 0.01 0.02 0.03 0.01 0.01 0.01 0.02 0.06 0.11 0.03 0.01 0.00 0.00 0.00 0.00 0.01 0.00 0.00 0.00 0.00 0.01 0.01 0.02 0.07 0.07 0.04 0.02 0.01 0.02 0.03 0.03 0.02 0.01 0.02 0.02 0.03 0.04 0.08 0.09
0.01 0.00 0.01 0.03 0.06 0.02 0.01 0.01 0.01 0.01 0.01 0.01 0.01 0.01 0.01 0.01 0.01 0.06 0.04 0.01 0.01 0.00 0.00 0.00 0.00 0.00 0.00 0.00 0.00 0.01 0.01 0.01 0.02 0.04 0.10 0.06 0.03 0.02 0.01 0.02 0.04 0.03 0.03 0.03 0.03 0.03 0.03 0.05 0.06
0.00 0.00 0.02 0.03 0.05 0.02 0.01 0.01 0.01 0.01 0.01 0.02 0.04 0.02 0.01 0.01 0.01 0.03 0.03 0.01 0.01 0.00 0.00 0.00 0.00 0.00 0.00 0.00 0.00 0.01 0.01 0.01 0.02 0.03 0.07 0.07 0.04 0.03 0.03 0.04 0.03 0.03 0.03 0.04 0.04 0.05 0.06 0.06 0.05
0.00 0.00 0.01 0.03 0.05 0.01 0.01 0.01 0.01 0.01 0.01 0.01 0.03 0.01 0.01 0.01 0.01 0.03 0.04 0.02 0.01 0.00 0.00 0.00 0.00 0.00 0.00 0.00 0.00 0.01 0.01 0.01 0.02 0.03 0.05 0.06 0.04 0.03 0.04 0.06 0.06 0.04 0.04 0.05 0.07 0.11 0.12 0.10 0.09
0.00 0.00 0.01 0.04 0.04 0.01 0.01 0.01 0.01 0.01 0.01 0.02 0.02 0.02 0.01 0.02 0.02 0.01 0.02 0.02 0.02 0.01 0.01 0.00 0.00 0.00 0.00 0.00 0.00 0.00 0.01 0.01 0.02 0.02 0.03 0.04 0.03 0.03 0.03 0.06 0.06 0.06 0.06 0.06 0.08 0.11 0.12 0.10 0.07
0.00 0.00 0.01 0.02 0.01 0.00 0.00 0.00 0.01 0.00 0.01 0.03 0.04 0.02 0.01 0.02 0.02 0.01 0.01 0.01 0.02 0.02 0.02 0.01 0.00 0.00 0.00 0.00 0.00 0.00 0.01 0.01 0.03 0.03 0.03 0.04 0.03 0.03 0.04 0.05 0.04 0.03 0.03 0.03 0.04 0.05 0.06 0.07 0.06
0.00 0.02 0.03 0.01 0.00 0.00 0.00 0.00 0.01 0.01 0.02 0.05 0.05 0.03 0.02 0.02 0.02 0.01 0.02 0.02 0.02 0.05 0.08 0.05 0.01 0.01 0.01 0.01 0.01 0.01 0.02 0.03 0.05 0.06 0.04 0.04 0.03 0.03 0.04 0.05 0.05 0.03 0.03 0.03 0.03 0.04 0.06 0.08 0.06
0.01 0.01 0.01 0.01 0.01 0.00 0.00 0.00 0.01 0.01 0.01 0.02 0.03 0.02 0.02 0.02 0.02 0.03 0.04 0.04 0.03 0.05 0.11 0.09 0.03 0.02 0.01 0.02 0.02 0.03 0.04 0.04 0.06 0.10 0.09 0.06 0.03 0.02 0.03 0.03 0.03 0.03 0.04 0.04 0.03 0.04 0.05 0.05 0.05
0.01 0.01 0.01 0.02 0.01 0.00 0.00 0.00 0.00 0.01 0.00 0.01 0.03 0.01 0.01 0.01 0.02 0.05 0.07 0.04 0.03 0.04 0.08 0.10 0.03 0.02 0.02 0.02 0.03 0.04 0.05 0.07 0.06 0.08 0.12 0.10 0.06 0.03 0.04 0.03 0.03 0.03 0.04 0.06 0.05 0.06 0.05 0.04 0.05
0.01 0.01 0.01 0.02 0.01 0.00 0.00 0.00 0.00 0.01 0.01 0.01 0.02 0.01 0.02 0.02 0.03 0.09 0.10 0.08 0.05 0.06 0.10 0.10 0.08 0.04 0.03 0.02 0.02 0.02 0.03 0.04 0.06 0.06 0.08 0.11 0.11 0.06 0.04 0.03 0.03 0.02 0.04 0.06 0.06 0.06 0.04 0.04 0.05
0.02 0.01 0.01 0.01 0.01 0.01 0.00 0.00 0.00 0.00 0.01 0.01 0.02 0.05 0.02 0.02 0.06 0.14 0.13 0.08 0.07 0.05 0.11 0.14 0.09 0.05 0.04 0.03 0.02 0.01 0.01 0.02 0.02 0.04 0.05 0.07 0.10 0.09 0.03 0.02 0.02 0.02 0.04 0.04 0.04 0.06 0.06 0.05 0.05
0.02 0.02 0.01 0.01 0.00 0.01 0.01 0.00 0.01 0.01 0.01 0.02 0.03 0.05 0.02 0.03 0.04 0.05 0.07 0.05 0.06 0.04 0.06 0.12 0.13 0.05 0.03 0.02 0.01 0.01 0.01 0.01 0.02 0.02 0.03 0.04 0.05 0.08 0.06 0.02 0.01 0.01 0.03 0.04 0.03 0.04 0.05 0.04 0.04
0.01 0.01 0.01 0.01 0.00 0.01 0.01 0.00 0.01 0.02 0.02 0.03 0.04 0.04 0.03 0.02 0.02 0.03 0.03 0.03 0.04 0.03 0.03 0.07 0.08 0.05 0.03 0.01 0.01 0.01 0.00 0.01 0.03 0.03 0.02 0.03 0.04 0.07 0.07 0.03 0.01 0.01 0.02 0.04 0.04 0.04 0.04 0.03 0.03
0.00 0.00 0.01 0.01 0.00 0.00 0.00 0.01 0.01 0.03 0.04 0.04 0.06 0.04 0.03 0.01 0.02 0.02 0.02 0.04 0.05 0.05 0.04 0.04 0.05 0.04 0.03 0.02 0.01 0.01 0.01 0.01 0.03 0.03 0.02 0.02 0.04 0.06 0.07 0.05 0.02 0.01 0.02 0.03 0.05 0.05 0.05 0.04 0.03
0.00 0.00 0.00 0.00 0.00 0.00 0.00 0.01 0.01 0.02 0.03 0.05 0.05 0.03 0.02 0.02 0.02 0.02 0.04 0.06 0.05 0.08 0.06 0.04 0.03 0.03 0.03 0.02 0.01 0.01 0.01 0.01 0.02 0.03 0.01 0.02 0.03 0.05 0.07 0.07 0.04 0.02 0.01 0.02 0.03 0.04 0.05 0.04 0.03
0.00 0.00 0.00 0.00 0.00 0.00 0.01 0.01 0.02 0.02 0.03 0.04 0.05 0.03 0.03 0.03 0.03 0.04 0.05 0.08 0.08 0.07 0.07 0.05 0.02 0.01 0.02 0.02 0.03 0.02 0.02 0.02 0.01 0.01 0.03 0.04 0.04 0.06 0.08 0.09 0.06 0.03 0.02 0.01 0.02 0.03 0.05 0.04 0.03
0.00 0.00 0.00 0.00 0.00 0.00 0.00 0.01 0.03 0.03 0.04 0.03 0.03 0.04 0.03 0.04 0.05 0.05 0.05 0.07 0.10 0.08 0.08 0.05 0.02 0.01 0.03 0.04 0.03 0.03 0.02 0.03 0.02 0.03 0.04 0.06 0.05 0.06 0.08 0.10 0.08 0.04 0.03 0.03 0.02 0.03 0.04 0.03 0.02
0.00 0.00 0.00 0.01 0.00 0.01 0.01 0.00 0.02 0.03 0.02 0.03 0.03 0.03 0.05 0.07 0.08 0.06 0.05 0.06 0.09 0.08 0.08 0.07 0.03 0.02 0.03 0.03 0.03 0.03 0.04 0.04 0.04 0.05 0.06 0.06 0.04 0.05 0.08 0.10 0.12 0.08 0.05 0.04 0.03 0.02 0.03 0.03 0.02
0.00 0.00 0.01 0.01 0.01 0.01 0.00 0.01 0.02 0.03 0.02 0.03 0.03 0.04 0.06 0.04 0.02 0.02 0.04 0.05 0.09 0.09 0.08 0.08 0.06 0.04 0.04 0.03 0.03 0.03 0.04 0.06 0.05 0.06 0.07 0.06 0.04 0.04 0.06 0.08 0.11 0.11 0.08 0.06 0.04 0.03 0.02 0.02 0.02
0.00 0.01 0.01 0.01 0.01 0.01 0.00 0.01 0.03 0.03 0.04 0.03 0.02 0.02 0.02 0.02 0.01 0.01 0.04 0.06 0.12 0.12 0.10 0.07 0.06 0.04 0.04 0.04 0.05 0.04 0.04 0.05 0.05 0.06 0.06 0.06 0.05 0.04 0.03 0.04 0.06 0.08 0.09 0.07 0.05 0.03 0.02 0.02 0.02
0.00 0.00 0.01 0.01 0.01 0.01 0.01 0.02 0.06 0.06 0.04 0.02 0.02 0.03 0.03 0.02 0.01 0.01 0.03 0.04 0.07 0.08 0.10 0.08 0.05 0.05 0.05 0.04 0.04 0.04 0.04 0.04 0.04 0.04 0.04 0.05 0.04 0.04 0.03 0.03 0.04 0.06 0.07 0.08 0.07 0.05 0.03 0.02 0.02
0.00 0.00 0.00 0.01 0.01 0.01 0.01 0.05 0.09 0.08 0.04 0.02 0.02 0.06 0.06 0.03 0.02 0.02 0.03 0.05 0.06 0.08 0.11 0.10 0.07 0.08 0.09 0.12 0.11 0.08 0.05 0.06 0.07 0.06 0.04 0.04 0.04 0.04 0.03 0.02 0.03 0.03 0.05 0.07 0.07 0.06 0.03 0.02 0.03
0.00 0.01 0.01 0.02 0.02 0.02 0.02 0.07 0.11 0.08 0.06 0.04 0.04 0.06 0.06 0.05 0.04 0.03 0.04 0.06 0.08 0.08 0.09 0.13 0.10 0.07 0.08 0.10 0.09 0.07 0.07 0.08 0.08 0.08 0.05 0.03 0.02 0.02 0.02 0.02 0.02 0.02 0.04 0.06 0.07 0.06 0.05 0.05 0.05
0.01 0.01 0.01 0.03 0.04 0.04 0.05 0.07 0.08 0.06 0.04 0.04 0.05 0.06 0.07 0.05 0.05 0.05 0.06 0.07 0.09 0.11 0.12 0.16 0.15 0.10 0.07 0.07 0.07 0.06 0.05 0.06 0.07 0.08 0.06 0.04 0.02 0.01 0.01 0.01 0.02 0.02 0.03 0.05 0.06 0.06 0.07 0.07 0.08
0.02 0.02 0.02 0.04 0.03 0.05 0.05 0.07 0.06 0.07 0.05 0.04 0.04 0.04 0.03 0.03 0.05 0.08 0.11 0.11 0.11 0.16 0.18 0.12 0.13 0.14 0.11 0.09 0.07 0.06 0.04 0.04 0.04 0.04 0.03 0.03 0.03 0.01 0.01 0.01 0.02 0.02 0.03 0.04 0.05 0.08 0.09 0.09 0.07
MSLP
1008.77 1009.95 1011.26 1012.44 1013.28 1013.59 1013.32 1012.52 1011.37 1010.10 1008.94 1008.10 1007.66 1007.62 1007.87 1008.25 1008.58 1008.73 1008.66 1008.40 1008.05 1007.74 1007.60 1007.71 1008.09 1008.66 1009.31 1009.94 1010.44 1010.76 1010.91 1010.97 1011.00 1011.12 1011.36 1011.75 1012.25 1012.79 1013.30 1013.73 1014.02 1014.20 1014.30 1014.36 1014.44 1014.57 1014.75 1014.98 1015.23
1009.36 1010.71 1012.07 1013.17 1013.80 1013.82 1013.20 1012.07 1010.62 1009.12 1007.81 1006.89 1006.43 1006.39 1006.67 1007.08 1007.46 1007.67 1007.68 1007.51 1007.29 1007.13 1007.14 1007.40 1007.91 1008.58 1009.31 1010.00 1010.54 1010.91 1011.12 1011.22 1011.32 1011.48 1011.76 1012.15 1012.63 1013.14 1013.60 1013.96 1014.22 1014.37 1014.46 1014.53 1014.62 1014.77 1014.96 1015.18 1015.41
1010.07 1011.51 1012.83 1013.77 1014.15 1013.86 1012.93 1011.51 1009.84 1008.19 1006.81 1005.87 1005.43 1005.42 1005.73 1006.17 1006.56 1006.80 1006.85 1006.76 1006.64 1006.61 1006.76 1007.15 1007.77 1008.53 1009.33 1010.07 1010.65 1011.06 1011.32 1011.48 1011.63 1011.84 1012.14 1012.52 1012.97 1013.42 1013.82 1014.12 1014.33 1014.46 1014.55 1014.65 1014.77 1014.95 1015.16 1015.39 1015.61
1010.82 1012.24 1013.44 1014.17 1014.27 1013.69 1012.50 1010.88 1009.09 1007.40 1006.04 1005.16 1004.78 1004.83 1005.16 1005.60 1005.99 1006.22 1006.29 1006.25 1006.21 1006.27 1006.53 1007.03 1007.72 1008.55 1009.38 1010.14 1010.75 1011.18 1011.48 1011.69 1011.89 1012.14 1012.45 1012.83 1013.24 1013.63 1013.96 1014.21 1014.38 1014.50 1014.61 1014.74 1014.92 1015.13 1015.38 1015.62 1015.84
1011.50 1012.82 1013.82 1014.29 1014.12 1013.29 1011.92 1010.21 1008.41 1006.79 1005.55 1004.80 1004.53 1004.65 1005.00 1005.43 1005.78 1005.99 1006.05 1006.03 1006.04 1006.17 1006.51 1007.06 1007.80 1008.63 1009.46 1010.20 1010.79 1011.23 1011.55 1011.80 1012.04 1012.33 1012.67 1013.05 1013.43 1013.78 1014.07 1014.27 1014.42 1014.54 1014.67 1014.85 1015.07 1015.34 1015.62 1015.89 1016.10
1012.04 1013.17 1013.91 1014.10 1013.68 1012.67 1011.21 1009.51 1007.81 1006.37 1005.33 1004.75 1004.62 1004.82 1005.19 1005.59 1005.90 1006.05 1006.09 1006.08 1006.11 1006.30 1006.67 1007.25 1007.98 1008.78 1009.55 1010.23 1010.77 1011.17 1011.49 1011.76 1012.05 1012.39 1012.77 1013.17 1013.55 1013.89 1014.15 1014.33 1014.47 1014.60 1014.76 1014.98 1015.25 1015.57 1015.88 1016.16 1016.38
1012.36 1013.23 1013.68 1013.60 1012.96 1011.83 1010.37 1008.78 1007.28 1006.09 1005.30 1004.94 1004.96 1005.23 1005.62 1005.98 1006.22 1006.33 1006.34 1006.32 1006.38 1006.59 1006.98 1007.55 1008.23 1008.95 1009.63 1010.20 1010.65 1011.00 1011.30 1011.59 1011.93 1012.32 1012.76 1013.21 1013.62 1013.97 1014.22 1014.41 1014.55 1014.69 1014.88 1015.13 1015.44 1015.79 1016.13 1016.42 1016.63
1012.43 1013.02 1013.18 1012.84 1012.03 1010.85 1009.46 1008.05 1006.81 1005.90 1005.38 1005.24 1005.40 1005.74 1006.13 1006.44 1006.63 1006.69 1006.68 1006.67 1006.75 1006.98 1007.37 1007.90 1008.51 1009.12 1009.67 1010.12 1010.46 1010.74 1011.01 1011.32 1011.70 1012.16 1012.67 1013.19 1013.65 1014.03 1014.32 1014.51 1014.66 1014.83 1015.03 1015.30 1015.63 1015.98 1016.33 1016.62 1016.83
1012.30 1012.59 1012.47 1011.91 1010.98 1009.80 1008.52 1007.33 1006.37 1005.75 1005.49 1005.55 1005.84 1006.22 1006.60 1006.87 1007.01 1007.04 1007.02 1007.03 1007.14 1007.38 1007.77 1008.25 1008.78 1009.27 1009.68 1009.99 1010.23 1010.44 1010.68 1011.00 1011.43 1011.97 1012.56 1013.15 1013.68 1014.11 1014.42 1014.64 1014.81 1014.98 1015.18 1015.45 1015.78 1016.13 1016.46 1016.74 1016.93
1012.01 1012.03 1011.66 1010.92 1009.92 1008.78 1007.65 1006.69 1005.99 1005.64 1005.60 1005.82 1006.19 1006.61 1006.96 1007.19 1007.30 1007.32 1007.31 1007.34 1007.48 1007.75 1008.12 1008.56 1008.99 1009.37 1009.65 1009.85 1009.99 1010.14 1010.36 1010.70 1011.18 1011.78 1012.44 1013.10 1013.70 1014.18 1014.53 1014.78 1014.95 1015.12 1015.32 1015.58 1015.88 1016.20 1016.51 1016.77 1016.95
1011.66 1011.44 1010.87 1010.00 1008.97 1007.89 1006.92 1006.16 1005.70 1005.56 1005.70 1006.03 1006.45 1006.86 1007.19 1007.40 1007.49 1007.51 1007.52 1007.60 1007.77 1008.05 1008.40 1008.79 1009.15 1009.42 1009.60 1009.70 1009.77 1009.88 1010.09 1010.45 1010.98 1011.63 1012.35 1013.07 1013.71 1014.23 1014.62 1014.88 1015.07 1015.24 1015.43 1015.66 1015.93 1016.22 1016.50 1016.73 1016.89
1011.34 1010.93 1010.20 1009.26 1008.22 1007.22 1006.39 1005.81 1005.53 1005.54 1005.79 1006.18 1006.62 1007.02 1007.33 1007.52 1007.61 1007.64 1007.69 1007.80 1008.00 1008.28 1008.61 1008.94 1009.22 1009.41 1009.51 1009.55 1009.59 1009.68 1009.90 1010.28 1010.84 1011.52 1012.27 1013.02 1013.69 1014.24 1014.65 1014.94 1015.14 1015.31 1015.49 1015.70 1015.95 1016.21 1016.45 1016.65 1016.80
1011.11 1010.56 1009.73 1008.75 1007.74 1006.82 1006.11 1005.66 1005.50 1005.60 1005.90 1006.31 1006.74 1007.12 1007.41 1007.60 1007.71 1007.77 1007.86 1007.99 1008.19 1008.46 1008.74 1009.01 1009.22 1009.35 1009.40 1009.41 1009.43 1009.54 1009.77 1010.18 1010.74 1011.44 1012.19 1012.94 1013.61 1014.17 1014.60 1014.91 1015.14 1015.32 1015.51 1015.72 1015.95 1016.18 1016.40 1016.58 1016.71
1011.00 1010.36 1009.49 1008.51 1007.54 1006.71 1006.09 1005.73 1005.63 1005.76 1006.06 1006.44 1006.85 1007.20 1007.49 1007.69 1007.83 1007.94 1008.05 1008.20 1008.39 1008.60 1008.82 1009.01 1009.15 1009.22 1009.24 1009.25 1009.29 1009.42 1009.68 1010.10 1010.67 1011.34 1012.07 1012.79 1013.44 1014.00 1014.44 1014.78 1015.05 1015.27 1015.49 1015.72 1015.95 1016.18 1016.39 1016.56 1016.68
1011.00 1010.32 1009.45 1008.51 1007.62 1006.86 1006.31 1006.00 1005.91 1006.01 1006.26 1006.59 1006.95 1007.29 1007.58 1007.82 1008.01 1008.16 1008.30 1008.44 1008.59 1008.74 1008.86 1008.96 1009.02 1009.04 1009.05 1009.07 1009.14 1009.31 1009.60 1010.02 1010.57 1011.20 1011.88 1012.55 1013.17 1013.72 1014.18 1014.56 1014.88 1015.17 1015.44 1015.71 1015.97 1016.22 1016.43 1016.61 1016.73
1011.05 1010.38 1009.56 1008.71 1007.91 1007.24 1006.74 1006.43 1006.30 1006.34 1006.50 1006.75 1007.05 1007.37 1007.68 1007.96 1008.21 1008.42 1008.59 1008.72 1008.82 1008.87 1008.90 1008.89 1008.87 1008.84 1008.83 1008.87 1008.98 1009.19 1009.50 1009.93 1010.44 1011.02 1011.63 1012.24 1012.83 1013.36 1013.84 1014.27 1014.66 1015.03 1015.38 1015.71 1016.02 1016.30 1016.54 1016.72 1016.86
1011.09 1010.48 1009.77 1009.04 1008.37 1007.79 1007.33 1007.00 1006.79 1006.72 1006.75 1006.89 1007.12 1007.41 1007.74 1008.09 1008.41 1008.69 1008.89 1009.02 1009.06 1009.03 1008.95 1008.83 1008.73 1008.65 1008.62 1008.68 1008.83 1009.07 1009.41 1009.82 1010.30 1010.82 1011.36 1011.91 1012.45 1012.97 1013.47 1013.96 1014.43 1014.88 1015.31 1015.72 1016.08 1016.40 1016.67 1016.88 1017.03
1011.06 1010.57 1010.02 1009.47 1008.95 1008.47 1008.04 1007.67 1007.35 1007.12 1007.00 1007.00 1007.13 1007.38 1007.73 1008.14 1008.55 1008.90 1009.16 1009.30 1009.31 1009.21 1009.03 1008.82 1008.63 1008.51 1008.47 1008.54 1008.72 1008.99 1009.34 1009.75 1010.19 1010.65 1011.13 1011.61 1012.11 1012.62 1013.15 1013.68 1014.22 1014.75 1015.26 1015.72 1016.14 1016.50 1016.80 1017.04 1017.23
1010.94 1010.63 1010.30 1009.97 1009.63 1009.26 1008.86 1008.42 1007.97 1007.55 1007.23 1007.05 1007.06 1007.25 1007.61 1008.08 1008.58 1009.03 1009.36 1009.53 1009.54 1009.40 1009.16 1008.88 1008.63 1008.47 1008.43 1008.51 1008.71 1009.00 1009.36 1009.76 1010.16 1010.58 1010.99 1011.43 1011.89 1012.39 1012.92 1013.49 1014.08 1014.66 1015.21 1015.72 1016.17 1016.56 1016.89 1017.16 1017.38
1010.72 1010.63 1010.57 1010.50 1010.37 1010.13 1009.75 1009.23 1008.62 1007.99 1007.44 1007.06 1006.91 1007.02 1007.37 1007.88 1008.47 1009.03 1009.46 1009.70 1009.74 1009.60 1009.33 1009.02 1008.74 1008.56 1008.51 1008.60 1008.82 1009.14 1009.50 1009.89 1010.27 1010.64 1011.02 1011.41 1011.84 1012.32 1012.85 1013.43 1014.03 1014.62 1015.18 1015.70 1016.15 1016.54 1016.88 1017.18 1017.43
1010.40 1010.59 1010.83 1011.04 1011.14 1011.03 1010.67 1010.07 1009.29 1008.43 1007.63 1007.03 1006.71 1006.71 1007.02 1007.57 1008.24 1008.90 1009.44 1009.78 1009.89 1009.79 1009.54 1009.23 1008.95 1008.77 1008.72 1008.83 1009.07 1009.40 1009.78 1010.17 1010.54 1010.89 1011.23 1011.59 1011.99 1012.44 1012.95 1013.50 1014.07 1014.64 1015.17 1015.64 1016.06 1016.43 1016.77 1017.07 1017.37
1010.01 1010.50 1011.06 1011.56 1011.88 1011.90 1011.56 1010.88 1009.93 1008.85 1007.81 1006.98 1006.47 1006.35 1006.61 1007.17 1007.91 1008.67 1009.32 1009.77 1009.97 1009.95 1009.76 1009.49 1009.23 1009.07 1009.04 1009.17 1009.43 1009.78 1010.17 1010.56 1010.93 1011.28 1011.60 1011.94 1012.31 1012.73 1013.20 1013.70 1014.21 1014.70 1015.16 1015.56 1015.91 1016.23 1016.54 1016.85 1017.17
1009.57 1010.35 1011.21 1011.98 1012.50 1012.65 1012.33 1011.58 1010.49 1009.21 1007.96 1006.92 1006.24 1006.00 1006.20 1006.75 1007.54 1008.38 1009.13 1009.69 1010.00 1010.07 1009.95 1009.74 1009.53 1009.40 1009.41 1009.56 1009.84 1010.21 1010.62 1011.03 1011.40 1011.75 1012.07 1012.40 1012.74 1013.12 1013.54 1013.97 1014.39 1014.79 1015.15 1015.45 1015.72 1015.97 1016.23 1016.52 1016.85
1009.08 1010.12 1011.23 1012.23 1012.93 1013.17 1012.88 1012.08 1010.89 1009.47 1008.05 1006.86 1006.05 1005.71 1005.85 1006.39 1007.19 1008.08 1008.91 1009.56 1009.96 1010.12 1010.09 1009.95 1009.79 1009.71 1009.75 1009.93 1010.23 1010.62 1011.05 1011.47 1011.86 1012.22 1012.54 1012.86 1013.18 1013.53 1013.88 1014.24 1014.58 1014.88 1015.12 1015.33 1015.50 1015.67 1015.87 1016.13 1016.46
1008.54 1009.77 1011.07 1012.24 1013.05 1013.37 1013.11 1012.30 1011.06 1009.57 1008.08 1006.80 1005.92 1005.52 1005.62 1006.14 1006.94 1007.85 1008.72 1009.42 1009.89 1010.12 1010.15 1010.08 1009.98 1009.95 1010.02 1010.23 1010.55 1010.95 1011.39 1011.82 1012.23 1012.59 1012.92 1013.23 1013.54 1013.85 1014.15 1014.45 1014.71 1014.92 1015.07 1015.18 1015.27 1015.37 1015.51 1015.73 1016.03
1007.96 1009.30 1010.70 1011.94 1012.82 1013.18 1012.96 1012.18 1010.96 1009.49 1008.02 1006.76 1005.88 1005.48 1005.56 1006.06 1006.84 1007.74 1008.61 1009.32 1009.81 1010.08 1010.16 1010.13 1010.09 1010.09 1010.20 1010.43 1010.76 1011.17 1011.61 1012.04 1012.44 1012.80 1013.12 1013.42 1013.71 1014.00 1014.27 1014.52 1014.72 1014.88 1014.97 1015.02 1015.05 1015.10 1015.19 1015.35 1015.61
1007.34 1008.70 1010.10 1011.35 1012.23 1012.62 1012.44 1011.73 1010.60 1009.25 1007.89 1006.74 1005.95 1005.60 1005.71 1006.19 1006.94 1007.79 1008.61 1009.28 1009.76 1010.03 1010.13 1010.14 1010.13 1010.17 1010.30 1010.54 1010.88 1011.27 1011.69 1012.10 1012.47 1012.81 1013.11 1013.39 1013.66 1013.93 1014.18 1014.41 1014.59 1014.72 1014.80 1014.83 1014.83 1014.84 1014.89 1015.01 1015.20
1006.72 1008.02 1009.35 1010.52 1011.35 1011.73 1011.60 1011.00 1010.04 1008.89 1007.74 1006.78 1006.15 1005.92 1006.08 1006.56 1007.26 1008.03 1008.77 1009.36 1009.78 1010.02 1010.11 1010.13 1010.15 1010.21 1010.37 1010.61 1010.93 1011.29 1011.67 1012.03 1012.35 1012.64 1012.90 1013.14 1013.38 1013.63 1013.87 1014.09 1014.28 1014.43 1014.52 1014.56 1014.57 1014.57 1014.60 1014.67 1014.80
1006.18 1007.34 1008.53 1009.57 1010.31 1010.67 1010.60 1010.14 1009.39 1008.49 1007.63 1006.93 1006.52 1006.44 1006.67 1007.16 1007.80 1008.48 1009.10 1009.59 1009.91 1010.09 1010.16 1010.18 1010.21 1010.30 1010.46 1010.70 1010.99 1011.31 1011.62 1011.90 1012.14 1012.35 1012.53 1012.71 1012.91 1013.12 1013.35 1013.59 1013.80 1013.98 1014.11 1014.19 1014.23 1014.25 1014.27 1014.30 1014.37
1005.81 1006.80 1007.79 1008.66 1009.29 1009.61 1009.60 1009.29 1008.78 1008.18 1007.62 1007.22 1007.05 1007.14 1007.46 1007.95 1008.52 1009.09 1009.58 1009.95 1010.17 1010.29 1010.32 1010.34 1010.38 1010.48 1010.65 1010.87 1011.13 1011.38 1011.61 1011.79 1011.93 1012.02 1012.11 1012.20 1012.33 1012.50 1012.71 1012.94 1013.18 1013.40 1013.58 1013.71 1013.79 1013.83 1013.85 1013.85 1013.86
Thickness
5823 5823 5821 5810 5788 5767 5765 5782 5800 5806 5809 5819 5824 5819 5808 5798 5788 5778 5800 5805 5802 5798 5796 5795 5793 5792 5790 5788 5787 5785 5784 5783 5782 5781 5781 5779 5778 5777 5777 5776 5775 5774 5773 5772 5772 5771 5770 5770 5770
5823 5822 5812 5795 5770 5751 5763 5789 5798 5808 5817 5823 5822 5818 5808 5801 5807 5802 5801 5803 5802 5799 5796 5795 5793 5791 5789 5788 5786 5784 5783 5781 5780 5780 5779 5777 5776 5775 5774 5773 5772 5772 5771 5770 5769 5769 5768 5768 5767
5823 5820 5799 5780 5764 5756 5769 5795 5804 5815 5825 5823 5816 5816 5809 5801 5805 5803 5804 5804 5801 5798 5796 5794 5793 5791 5789 5787 5785 5783 5781 5780 5778 5777 5776 5775 5774 5773 5772 5771 5771 5770 5769 5768 5767 5767 5766 5766 5765
5817 5805 5791 5771 5765 5778 5789 5802 5810 5811 5817 5822 5816 5805 5809 5815 5814 5810 5807 5805 5800 5797 5795 5794 5792 5790 5788 5786 5784 5782 5780 5778 5777 5775 5774 5773 5772 5771 5770 5770 5769 5768 5767 5766 5766 5765 5764 5764 5763
5811 5791 5771 5759 5769 5788 5804 5812 5814 5808 5809 5813 5812 5797 5797 5812 5817 5812 5808 5805 5800 5796 5794 5793 5791 5789 5787 5785 5783 5780 5779 5777 5775 5773 5772 5770 5770 5769 5768 5768 5767 5766 5766 5765 5764 5763 5762 5762 5761
5794 5781 5758 5752 5770 5793 5807 5815 5813 5808 5807 5810 5808 5797 5794 5808 5809 5806 5806 5803 5801 5797 5794 5792 5790 5788 5786 5784 5781 5779 5777 5775 5773 5771 5770 5769 5768 5767 5766 5766 5765 5764 5764 5763 5762 5761 5761 5760 5760
5785 5771 5761 5766 5772 5785 5804 5817 5810 5807 5804 5808 5811 5794 5793 5800 5807 5807 5804 5801 5798 5796 5793 5791 5789 5786 5784 5782 5780 5778 5775 5773 5771 5770 5768 5767 5766 5765 5764 5763 5763 5762 5762 5761 5760 5760 5759 5759 5758
5796 5775 5767 5769 5773 5783 5807 5815 5815 5811 5808 5819 5816 5794 5789 5800 5806 5804 5800 5797 5795 5793 5792 5790 5787 5785 5783 5780 5778 5776 5774 5772 5770 5768 5766 5765 5764 5763 5763 5761 5761 5760 5760 5759 5758 5758 5757 5757 5756
5802 5769 5759 5771 5779 5788 5807 5807 5812 5821 5814 5815 5816 5811 5810 5810 5806 5799 5793 5790 5789 5788 5788 5787 5785 5783 5781 5779 5777 5774 5772 5771 5769 5767 5764 5763 5762 5761 5760 5759 5758 5758 5758 5757 5756 5755 5755 5755 5754
5785 5761 5774 5792 5798 5797 5804 5806 5809 5808 5803 5802 5804 5809 5811 5807 5801 5794 5789 5785 5784 5784 5784 5784 5783 5781 5779 5778 5775 5773 5771 5769 5767 5765 5763 5761 5760 5758 5758 5757 5756 5755 5755 5754 5754 5753 5752 5752 5752
5786 5776 5791 5801 5807 5806 5803 5806 5814 5801 5791 5798 5798 5801 5803 5801 5797 5793 5789 5787 5786 5786 5784 5783 5782 5780 5778 5776 5774 5771 5769 5766 5765 5763 5761 5759 5758 5756 5755 5754 5753 5753 5752 5751 5751 5751 5750 5750 5749
5785 5790 5798 5803 5810 5808 5805 5806 5805 5802 5801 5811 5811 5808 5803 5798 5796 5793 5789 5787 5786 5784 5783 5783 5782 5780 5777 5775 5772 5770 5767 5764 5763 5761 5760 5758 5755 5754 5753 5751 5751 5750 5750 5749 5748 5748 5748 5748 5747
5782 5789 5801 5807 5808 5808 5809 5803 5802 5802 5811 5814 5810 5805 5800 5798 5797 5796 5793 5790 5786 5783 5783 5782 5781 5778 5775 5773 5770 5768 5765 5764 5762 5760 5758 5756 5754 5752 5750 5749 5749 5748 5747 5746 5745 5745 5745 5745 5745
5786 5792 5798 5803 5804 5806 5800 5799 5799 5800 5809 5807 5802 5798 5798 5797 5796 5792 5789 5787 5785 5784 5782 5782 5780 5779 5776 5772 5769 5767 5764 5762 5760 5758 5756 5754 5752 5750 5748 5746 5745 5745 5744 5743 5742 5742 5742 5742 5743
5790 5783 5787 5795 5799 5801 5798 5784 5792 5804 5805 5799 5797 5796 5795 5796 5796 5793 5791 5789 5786 5784 5783 5781 5780 5778 5775 5771 5768 5765 5763 5760 5758 5756 5754 5753 5751 5749 5746 5744 5742 5742 5742 5741 5740 5740 5740 5739 5739
5777 5768 5762 5783 5795 5799 5786 5765 5792 5804 5800 5793 5794 5795 5793 5794 5795 5794 5792 5790 5787 5784 5781 5780 5779 5776 5773 5770 5767 5764 5762 5759 5756 5754 5752 5750 5748 5747 5744 5742 5740 5740 5739 5738 5737 5736 5735 5734 5734
5753 5746 5753 5770 5792 5793 5782 5770 5791 5801 5798 5792 5792 5792 5791 5789 5791 5791 5792 5790 5787 5784 5781 5778 5776 5773 5771 5768 5765 5761 5759 5756 5754 5751 5749 5748 5746 5744 5741 5739 5737 5736 5735 5734 5734 5732 5731 5729 5730
5737 5744 5751 5760 5783 5785 5775 5773 5787 5796 5796 5792 5791 5789 5788 5787 5788 5791 5791 5789 5786 5783 5780 5776 5774 5772 5769 5765 5760 5757 5755 5752 5750 5748 5746 5745 5743 5740 5738 5736 5733 5732 5731 5729 5728 5727 5727 5726 5726
5753 5749 5749 5764 5784 5778 5771 5772 5781 5790 5790 5788 5786 5784 5784 5785 5789 5789 5789 5786 5782 5778 5775 5772 5769 5767 5764 5759 5754 5751 5748 5747 5746 5745 5743 5741 5739 5737 5735 5732 5730 5728 5727 5725 5724 5723 5722 5720 5721
5753 5746 5749 5763 5781 5776 5765 5767 5780 5785 5786 5787 5785 5783 5783 5782 5782 5782 5782 5781 5778 5775 5772 5768 5766 5764 5761 5758 5754 5751 5747 5745 5743 5742 5740 5738 5736 5734 5732 5728 5726 5725 5723 5721 5720 5719 5716 5715 5715
5752 5748 5752 5756 5769 5773 5764 5754 5764 5777 5783 5784 5784 5783 5782 5781 5778 5778 5776 5775 5774 5771 5769 5767 5763 5761 5758 5756 5752 5747 5743 5740 5737 5736 5734 5733 5732 5730 5727 5724 5723 5721 5719 5717 5716 5715 5712 5709 5709
5743 5765 5765 5760 5748 5738 5750 5724 5746 5761 5766 5772 5774 5776 5776 5778 5776 5775 5774 5770 5769 5769 5768 5765 5761 5757 5754 5752 5748 5742 5737 5732 5732 5731 5730 5729 5727 5725 5723 5721 5719 5717 5715 5713 5712 5711 5709 5706 5703
5756 5772 5765 5758 5744 5733 5738 5724 5732 5752 5752 5759 5767 5771 5773 5773 5771 5770 5769 5767 5765 5764 5763 5760 5756 5753 5750 5748 5745 5739 5734 5731 5729 5727 5725 5723 5723 5721 5719 5717 5715 5713 5711 5709 5707 5706 5705 5703 5701
5770 5761 5753 5740 5726 5711 5728 5721 5721 5738 5750 5757 5762 5766 5768 5767 5767 5764 5763 5762 5760 5758 5756 5753 5749 5746 5745 5743 5740 5736 5731 5727 5724 5721 5719 5718 5717 5716 5714 5712 5710 5709 5707 5705 5703 5702 5700 5699 5698
5756 5727 5703 5701 5692 5700 5727 5722 5722 5747 5757 5759 5757 5758 5761 5761 5760 5756 5754 5752 5751 5750 5748 5747 5744 5740 5739 5737 5735 5732 5729 5726 5722 5719 5716 5713 5711 5710 5709 5708 5706 5704 5702 5701 5699 5697 5696 5695 5694
5742 5727 5698 5687 5685 5698 5719 5713 5725 5750 5758 5759 5757 5754 5753 5752 5751 5749 5747 5746 5744 5743 5742 5740 5738 5735 5733 5731 5729 5726 5724 5722 5719 5716 5713 5710 5708 5706 5705 5704 5702 5700 5698 5697 5695 5693 5691 5690 5690
5738 5726 5727 5705 5701 5692 5699 5712 5727 5743 5745 5746 5745 5744 5743 5743 5743 5741 5740 5739 5737 5736 5735 5735 5733 5730 5728 5726 5724 5721 5719 5717 5714 5711 5709 5706 5704 5702 5701 5699 5697 5696 5694 5692 5690 5688 5687 5686 5685
5748 5737 5713 5699 5686 5680 5692 5700 5706 5722 5727 5732 5733 5733 5735 5736 5736 5735 5733 5732 5730 5729 5729 5729 5727 5725 5723 5721 5718 5717 5714 5712 5709 5707 5704 5702 5700 5698 5696 5695 5693 5691 5689 5687 5686 5684 5683 5681 5680
5733 5728 5714 5697 5693 5681 5675 5690 5725 5725 5728 5728 5729 5730 5729 5730 5729 5728 5726 5725 5724 5724 5723 5723 5721 5719 5716 5714 5712 5710 5708 5707 5704 5702 5700 5698 5695 5693 5692 5690 5688 5687 5685 5683 5681 5680 5678 5677 5676
5731 5723 5709 5691 5688 5686 5678 5690 5731 5730 5731 5730 5728 5728 5725 5723 5723 5721 5719 5718 5717 5716 5715 5714 5713 5711 5710 5708 5705 5704 5703 5701 5698 5697 5695 5693 5690 5688 5687 5685 5684 5682 5680 5678 5676 5675 5674 5673 5671